Probability
61 52 58 55 42 32 29 23 13 10 10 10 6 6 6 3 3 3 6 3 3 0 3 3 3 3 3 3 3 3 0 0 0 0 0 0 0 0 0 0 0 0 0
55 52 48 42 42 32 29 23 13 10 10 6 6 6 10 6 6 6 6 3 3 3 3 3 3 3 3 3 3 3 3 3 0 0 0 0 0 0 0 0 0 0 0
55 55 48 42 48 32 23 19 13 13 13 10 10 10 10 10 6 6 3 3 3 3 3 3 3 3 3 3 3 3 0 0 0 0 0 0 0 0 0 0 0 0 0
52 52 52 48 45 26 26 23 13 10 6 10 10 10 10 10 6 3 3 3 3 3 3 3 3 3 3 3 3 0 0 0 0 0 0 0 0 0 0 0 0 0 0
52 48 52 45 42 32 29 23 16 13 10 10 10 10 10 10 10 3 3 3 3 3 3 3 3 3 3 3 0 0 0 0 0 0 0 0 0 0 0 0 0 0 0
48 48 45 42 45 32 32 23 16 13 10 10 10 10 10 10 6 3 3 3 3 3 3 3 3 3 3 0 0 0 0 0 0 0 0 0 0 0 0 0 0 0 0
48 55 45 42 39 35 35 26 13 10 6 6 6 6 3 3 3 3 0 0 0 0 3 3 3 3 0 0 0 0 0 0 0 0 0 0 0 0 0 0 0 0 0
45 48 45 45 42 35 32 23 16 10 10 6 6 3 3 3 3 3 3 0 0 0 0 0 0 0 0 0 0 0 0 0 0 0 0 0 0 0 0 0 0 0 0
52 52 45 42 39 39 29 23 19 16 6 6 3 3 3 0 0 0 0 0 0 0 0 0 0 0 0 0 0 0 0 0 0 0 0 0 0 0 0 0 0 0 0
52 55 52 45 39 35 29 19 13 10 10 6 0 0 0 0 0 0 0 0 0 0 0 0 0 0 0 0 0 0 0 0 0 0 0 0 0 0 0 0 0 0 0
55 52 52 48 39 29 29 19 6 10 6 6 0 0 0 0 0 0 0 0 0 0 0 0 0 0 0 0 0 0 0 0 0 0 0 0 0 0 0 0 0 0 0
58 58 61 45 45 39 23 16 6 3 3 6 3 0 0 0 0 0 0 0 0 0 0 0 0 0 0 0 0 0 0 0 0 0 0 0 0 0 0 0 0 0 0
55 58 52 45 42 35 29 26 10 3 3 3 3 0 0 0 0 0 0 0 0 0 0 0 0 0 0 0 0 0 0 0 0 0 0 0 0 0 0 0 0 0 0
48 48 45 39 35 32 23 23 16 13 3 3 3 0 0 0 0 0 0 0 0 0 0 0 0 0 0 0 0 0 0 0 0 0 0 0 0 0 0 0 0 0 0
45 45 42 35 29 29 23 19 13 13 13 3 3 0 0 0 0 0 0 0 0 0 0 0 0 0 0 0 0 0 0 0 0 0 0 0 0 0 0 0 0 0 0
42 42 42 32 32 26 23 13 6 6 0 0 0 0 0 0 0 0 0 0 0 0 0 0 0 0 0 0 0 0 0 0 0 0 0 0 0 0 0 0 0 0 0
39 32 35 29 29 26 23 13 10 0 0 0 0 0 0 0 0 0 0 0 0 0 0 0 0 0 0 0 0 0 0 0 0 0 0 0 0 0 0 0 0 0 0
39 32 32 26 26 29 23 19 10 6 6 0 0 0 0 0 0 0 0 0 0 0 0 0 0 0 0 0 0 0 0 0 0 0 0 0 0 0 0 0 0 0 0
42 39 32 26 26 26 23 19 16 6 6 6 0 0 0 0 0 0 0 0 0 0 0 0 0 0 0 0 0 0 0 0 0 0 0 0 0 0 0 0 0 0 0
35 29 29 29 23 19 16 16 16 13 6 3 0 0 0 0 0 0 0 0 0 0 0 0 0 0 0 0 0 0 0 0 0 0 0 0 0 0 0 0 0 0 0
26 23 16 19 16 16 16 16 16 16 10 6 6 0 0 0 0 0 0 0 0 0 0 0 0 0 0 0 0 0 0 0 0 0 0 0 0 0 0 0 0 0 0
29 26 16 19 13 13 10 13 13 13 6 6 3 0 0 0 0 0 0 0 0 0 0 0 0 0 0 0 0 0 0 0 0 0 0 0 0 0 0 0 0 0 0
29 26 16 13 10 6 6 6 10 13 6 6 3 0 0 0 0 0 0 0 0 0 0 0 0 0 0 0 0 0 0 0 0 0 0 0 0 0 0 0 0 0 0
19 19 13 10 10 13 13 6 6 6 6 3 3 0 0 0 0 0 0 0 0 0 0 0 0 0 0 0 0 0 0 0 0 0 0 0 0 0 0 0 0 0 0
19 19 13 13 6 6 6 3 3 6 3 0 0 0 0 0 0 0 0 0 0 0 0 0 0 0 0 0 0 0 0 0 0 0 0 0 0 0 0 0 0 0 0
23 23 16 10 3 3 3 3 3 3 3 3 0 0 0 0 0 0 0 0 0 0 0 0 0 0 0 0 0 0 0 0 0 0 0 0 0 0 0 0 0 0 0
Height
5911 5909 5908 5906 5905 5904 5902 5901 5899 5898 5896 5894 5892 5890 5888 5886 5884 5883 5881 5879 5877 5875 5873 5872 5870 5868 5866 5864 5862 5860 5859 5857 5855 5853 5852 5850 5848 5846 5844 5842 5841 5839 5837
5910 5908 5907 5905 5904 5902 5901 5899 5897 5896 5894 5893 5891 5889 5887 5885 5883 5881 5879 5877 5875 5873 5871 5869 5867 5865 5863 5861 5859 5857 5855 5853 5852 5850 5848 5846 5844 5842 5840 5839 5837 5835 5833
5909 5907 5906 5904 5902 5901 5899 5898 5896 5894 5892 5891 5889 5887 5885 5883 5881 5879 5877 5875 5873 5871 5869 5867 5865 5862 5860 5858 5856 5854 5852 5850 5848 5846 5845 5843 5841 5839 5837 5835 5833 5831 5829
5908 5906 5904 5903 5901 5899 5898 5896 5894 5892 5890 5889 5887 5885 5883 5881 5879 5877 5875 5873 5871 5868 5866 5864 5862 5860 5857 5855 5853 5851 5848 5846 5845 5843 5841 5839 5837 5835 5833 5831 5829 5827 5825
5907 5905 5903 5902 5900 5898 5896 5894 5892 5890 5888 5886 5885 5883 5881 5879 5877 5875 5872 5870 5868 5865 5863 5860 5858 5856 5854 5852 5849 5847 5845 5843 5841 5839 5837 5835 5833 5831 5829 5827 5825 5823 5820
5905 5904 5902 5900 5898 5896 5894 5892 5890 5888 5886 5884 5882 5881 5879 5876 5874 5872 5870 5867 5865 5862 5859 5857 5855 5852 5850 5848 5846 5844 5841 5839 5837 5835 5833 5831 5828 5827 5824 5822 5820 5818 5816
5903 5901 5900 5898 5896 5894 5892 5890 5888 5886 5884 5882 5880 5878 5875 5873 5871 5869 5866 5863 5861 5858 5856 5853 5851 5848 5846 5844 5841 5839 5837 5835 5833 5831 5828 5826 5824 5822 5819 5817 5815 5812 5810
5900 5899 5897 5895 5893 5892 5890 5888 5885 5883 5881 5879 5876 5874 5872 5869 5867 5865 5862 5859 5857 5854 5852 5849 5847 5844 5842 5839 5837 5835 5832 5830 5828 5825 5823 5821 5819 5816 5814 5812 5809 5806 5804
5897 5895 5894 5892 5890 5888 5886 5884 5882 5880 5877 5875 5872 5869 5868 5865 5863 5861 5858 5855 5852 5850 5847 5845 5842 5839 5837 5834 5832 5829 5827 5825 5822 5820 5818 5815 5813 5810 5808 5805 5803 5800 5798
5893 5891 5890 5888 5887 5885 5883 5881 5878 5876 5874 5871 5868 5866 5864 5861 5858 5856 5853 5850 5847 5845 5842 5840 5837 5834 5831 5829 5826 5824 5821 5819 5816 5814 5812 5809 5807 5804 5802 5799 5796 5794 5791
5888 5886 5885 5884 5882 5880 5878 5876 5874 5871 5869 5867 5864 5862 5859 5856 5854 5851 5848 5845 5842 5840 5837 5834 5831 5829 5826 5823 5820 5818 5815 5813 5810 5808 5805 5803 5800 5797 5795 5792 5789 5786 5783
5882 5881 5880 5879 5877 5874 5872 5870 5869 5866 5864 5862 5859 5857 5854 5851 5849 5846 5843 5840 5837 5834 5831 5828 5825 5822 5819 5817 5814 5811 5808 5806 5803 5801 5798 5796 5793 5790 5787 5784 5781 5778 5775
5877 5876 5874 5873 5870 5868 5866 5865 5863 5861 5859 5857 5854 5851 5849 5846 5843 5840 5837 5834 5831 5827 5824 5821 5818 5815 5812 5810 5807 5804 5801 5799 5796 5794 5791 5788 5785 5782 5779 5776 5773 5769 5766
5871 5870 5869 5867 5864 5863 5861 5859 5857 5855 5853 5851 5848 5845 5843 5840 5837 5834 5831 5828 5824 5821 5818 5814 5811 5808 5805 5802 5800 5797 5794 5791 5789 5786 5783 5780 5777 5774 5771 5768 5764 5761 5757
5865 5864 5862 5860 5858 5856 5854 5853 5851 5849 5847 5844 5842 5839 5836 5833 5831 5828 5825 5821 5818 5815 5811 5808 5805 5802 5799 5795 5792 5790 5787 5784 5781 5778 5775 5772 5769 5766 5762 5759 5755 5752 5748
5857 5856 5855 5853 5851 5849 5847 5846 5844 5842 5840 5838 5835 5833 5830 5827 5824 5821 5818 5815 5812 5809 5805 5802 5799 5795 5792 5789 5785 5782 5779 5776 5772 5769 5766 5763 5760 5757 5753 5750 5746 5743 5739
5849 5848 5847 5846 5844 5842 5840 5839 5837 5835 5832 5830 5828 5825 5822 5819 5816 5813 5810 5807 5804 5801 5798 5794 5791 5788 5784 5781 5777 5774 5771 5767 5764 5761 5758 5754 5751 5748 5744 5741 5737 5734 5730
5841 5840 5839 5838 5836 5834 5832 5830 5829 5827 5824 5822 5820 5817 5814 5811 5808 5805 5802 5799 5796 5793 5790 5787 5783 5780 5776 5773 5769 5766 5762 5758 5755 5752 5748 5745 5742 5738 5735 5732 5728 5725 5721
5833 5832 5830 5829 5827 5826 5824 5822 5820 5818 5815 5813 5810 5808 5805 5802 5799 5796 5793 5790 5787 5784 5781 5778 5774 5771 5767 5764 5760 5756 5753 5749 5745 5742 5739 5735 5732 5729 5726 5722 5719 5715 5712
5823 5822 5821 5820 5818 5817 5815 5813 5810 5808 5806 5803 5800 5798 5795 5792 5790 5787 5784 5781 5778 5775 5772 5769 5765 5762 5758 5755 5751 5747 5743 5740 5736 5732 5729 5726 5723 5719 5716 5713 5709 5706 5702
5813 5812 5811 5809 5808 5807 5805 5803 5801 5798 5796 5794 5791 5788 5785 5782 5780 5777 5774 5772 5769 5766 5763 5759 5756 5753 5749 5745 5742 5738 5734 5731 5727 5723 5720 5716 5713 5710 5706 5703 5700 5696 5693
5802 5801 5800 5799 5797 5796 5794 5792 5790 5788 5786 5783 5781 5778 5775 5773 5770 5767 5764 5762 5759 5756 5753 5750 5747 5744 5740 5736 5733 5729 5725 5722 5718 5715 5711 5707 5703 5700 5697 5694 5691 5687 5683
5791 5790 5789 5788 5786 5785 5783 5782 5780 5777 5775 5773 5770 5767 5765 5762 5760 5757 5754 5752 5749 5746 5743 5740 5737 5734 5730 5727 5724 5720 5717 5713 5709 5705 5702 5698 5695 5692 5688 5685 5681 5678 5675
5779 5778 5777 5776 5775 5774 5772 5770 5769 5767 5765 5762 5760 5757 5755 5752 5750 5747 5745 5742 5739 5737 5734 5731 5728 5724 5721 5718 5714 5711 5708 5704 5700 5696 5693 5689 5686 5683 5679 5676 5673 5669 5666
5768 5767 5766 5765 5764 5762 5760 5759 5757 5755 5753 5751 5749 5746 5744 5742 5740 5737 5735 5732 5729 5727 5724 5721 5717 5714 5711 5708 5705 5702 5699 5695 5692 5688 5684 5681 5677 5674 5671 5667 5664 5660 5656
5756 5755 5754 5753 5751 5750 5749 5747 5746 5744 5742 5740 5738 5735 5733 5730 5729 5726 5724 5721 5719 5717 5714 5711 5707 5704 5701 5698 5695 5692 5689 5686 5683 5679 5675 5672 5669 5665 5662 5658 5655 5651 5647
Wind_Speed
8 8 7 7 7 7 8 8 9 9 10 10 10 10 10 10 10 9 9 9 10 10 10 11 11 11 11 11 12 12 12 13 13 13 14 14 14 14 14 14 14 14 15
8 7 8 8 7 8 9 9 10 10 10 11 11 11 11 10 10 10 10 10 10 11 11 12 12 13 12 13 14 14 14 14 14 14 14 14 14 14 14 14 14 15 15
8 8 8 8 8 9 9 10 10 10 10 11 11 11 11 11 11 11 11 11 11 12 12 13 14 14 14 15 15 15 14 14 14 14 14 14 14 15 15 15 15 16 16
9 9 9 9 9 9 10 10 11 11 11 12 12 12 12 12 11 11 12 13 13 14 14 14 14 15 15 15 16 15 15 14 14 14 14 14 15 15 15 16 16 17 18
9 10 10 10 10 11 11 11 11 12 12 12 12 12 12 12 13 13 14 15 15 15 16 16 15 16 16 16 16 15 15 15 15 15 16 15 15 15 16 16 17 18 19
10 10 11 12 12 12 12 12 13 13 13 13 13 13 14 14 14 15 16 16 17 17 17 17 17 17 17 17 17 16 16 16 16 16 16 16 16 17 17 18 18 19 20
10 11 12 12 12 12 12 12 13 13 14 14 14 14 15 15 16 16 17 17 17 17 17 17 18 18 18 18 17 17 17 17 17 17 17 17 18 18 19 20 20 21 21
12 13 13 13 13 13 13 13 14 14 14 14 15 16 16 17 18 18 19 19 18 18 18 18 19 19 18 18 18 18 19 19 19 19 18 18 19 20 21 21 21 22 23
14 14 14 14 14 15 15 15 15 16 16 16 17 17 18 18 19 20 20 20 19 19 19 20 20 20 20 20 20 20 20 20 20 20 20 21 21 22 22 22 23 23 24
16 16 16 15 15 16 17 17 18 18 19 20 20 20 20 20 21 22 22 21 21 21 21 21 21 21 21 21 21 21 21 22 21 21 21 21 22 23 23 24 24 25 26
18 18 18 17 17 18 18 18 20 20 20 21 21 21 22 22 22 23 23 23 22 22 23 23 23 23 23 22 23 23 23 23 23 23 23 23 23 24 25 25 26 27 28
20 20 20 20 20 20 19 20 20 21 21 22 22 22 23 23 24 24 24 24 24 25 25 25 25 24 24 23 24 24 24 24 24 24 24 25 25 26 27 27 28 29 30
22 22 22 22 22 22 21 21 22 22 23 23 24 24 24 24 25 25 25 26 26 26 26 26 26 25 25 25 25 24 25 25 25 25 25 26 27 28 28 29 30 30 31
23 23 23 23 23 23 22 22 23 23 24 25 26 26 25 25 25 26 26 26 26 26 26 25 25 25 25 25 25 25 25 25 26 26 27 27 28 29 29 30 30 31 31
25 25 24 24 24 24 24 24 24 25 25 25 26 26 26 27 27 28 27 27 27 27 26 26 26 25 25 25 26 26 26 27 28 28 29 29 29 30 30 31 31 32 32
26 26 26 26 26 25 25 25 25 26 26 26 27 28 29 29 29 29 28 28 28 27 27 26 27 26 26 26 27 28 28 29 29 29 30 30 31 32 32 32 32 32 32
29 28 28 27 27 27 27 27 27 27 28 28 29 30 31 31 30 29 29 29 29 29 28 28 28 28 28 29 29 30 30 30 31 31 31 32 32 32 32 32 33 33 33
30 30 30 29 28 29 29 29 29 29 30 31 31 31 32 32 31 31 31 31 30 30 30 30 30 30 30 30 31 31 32 32 32 32 31 31 32 32 32 32 32 32 33
31 32 32 31 31 31 31 32 32 32 32 33 33 33 33 33 32 32 32 32 32 32 32 31 31 32 32 33 32 32 33 33 33 33 33 33 32 32 33 33 33 34 33
33 34 34 33 33 33 34 34 34 34 34 34 34 34 34 34 33 33 33 33 33 32 32 32 32 32 33 33 33 33 33 33 33 33 33 33 33 33 33 33 33 33 33
34 35 35 35 35 36 36 36 35 35 34 34 35 35 35 35 34 33 32 32 33 32 32 32 32 32 33 33 33 33 33 33 33 33 33 33 33 33 33 32 32 32 32
35 36 36 36 36 37 37 37 37 36 36 36 36 36 36 35 34 33 32 32 32 32 32 32 33 34 34 33 33 33 33 33 33 34 34 33 33 33 33 32 31 31 32
37 36 36 36 36 37 37 37 36 36 37 37 37 37 36 34 34 33 33 32 33 33 33 33 34 34 34 33 33 33 33 34 34 34 33 32 32 32 32 31 31 32 32
37 37 36 36 37 37 37 37 37 37 37 37 37 36 36 35 34 34 33 32 32 33 33 34 34 35 34 33 32 33 33 34 34 32 31 31 31 31 31 31 32 32 32
37 37 37 36 36 37 37 37 36 36 37 37 37 36 35 34 33 33 33 33 32 33 33 34 34 34 34 34 33 34 33 33 32 32 31 31 30 31 31 32 32 32 32
38 38 37 37 36 36 36 36 36 36 36 36 36 35 34 33 32 33 33 32 32 32 33 33 34 34 34 33 34 33 33 32 32 32 32 31 30 31 32 32 32 32 32
Wind_Direction
357 356 353 346 341 341 338 336 337 338 341 345 344 341 339 332 330 328 325 325 327 326 324 323 323 319 312 308 307 306 305 303 300 300 302 301 299 299 298 297 300 299 298
349 348 345 339 335 334 332 332 333 335 337 339 339 339 339 336 331 329 327 325 325 323 321 319 318 317 315 310 309 307 304 302 301 299 300 300 301 300 299 298 299 299 298
350 343 340 337 336 334 332 333 333 333 335 338 337 336 337 336 333 332 331 325 321 318 316 315 314 313 313 312 311 309 306 303 302 302 302 301 301 300 298 297 297 296 296
353 350 342 335 334 331 330 331 332 332 334 336 336 335 335 334 332 331 329 327 324 319 316 314 313 313 312 312 311 309 306 304 303 303 302 302 301 298 297 299 299 298 298
343 344 344 342 339 335 333 333 335 335 334 332 332 332 331 330 328 325 323 322 321 318 316 315 313 312 311 311 310 308 307 305 302 300 302 300 298 298 299 300 299 299 299
330 330 331 334 334 334 334 334 332 331 329 328 326 327 326 326 324 323 321 319 319 316 314 314 313 312 310 310 308 306 305 305 303 302 301 299 297 297 298 299 299 299 299
316 319 320 324 327 328 329 329 329 328 328 326 323 322 321 322 322 321 321 319 317 315 313 313 312 311 310 308 308 305 304 303 303 303 300 298 297 297 298 298 298 299 301
306 309 311 315 317 319 320 322 322 321 322 321 319 318 318 320 320 320 319 317 315 315 314 312 311 311 310 307 305 305 304 304 303 302 300 298 297 297 297 298 297 298 300
299 302 302 306 308 310 313 313 315 315 315 315 317 316 318 318 317 317 316 315 314 312 311 311 311 311 309 306 304 304 303 303 303 301 299 298 297 297 296 297 297 298 300
292 296 301 301 301 303 306 307 308 311 314 316 316 317 317 315 314 313 313 312 312 311 310 309 309 309 308 306 304 304 303 301 300 299 299 298 298 297 297 297 297 297 299
289 292 295 296 297 297 299 302 304 308 311 313 313 313 312 311 311 310 310 309 310 310 308 307 306 306 305 304 302 301 302 301 298 297 297 298 299 299 298 298 298 298 298
292 293 293 292 292 293 295 298 301 305 308 309 310 310 309 309 309 308 308 307 308 308 306 305 304 303 303 303 302 300 299 299 298 297 297 298 298 298 298 298 298 298 299
291 293 293 291 291 294 296 297 299 302 304 306 307 308 308 308 308 307 307 307 308 308 306 304 303 302 302 302 301 300 300 299 297 297 297 297 297 297 296 297 299 300 299
289 292 292 293 295 296 298 298 300 301 302 303 305 307 307 308 308 307 307 307 309 310 308 307 306 304 304 303 302 300 299 298 297 296 296 297 298 297 297 298 298 300 301
286 288 290 290 292 294 295 296 297 299 301 302 304 306 306 306 306 306 306 306 307 308 307 306 305 305 305 303 302 301 301 299 297 296 296 297 298 299 299 299 298 299 300
283 286 287 289 291 293 293 294 295 297 298 299 301 302 304 303 303 303 304 304 305 306 306 305 304 303 303 304 303 301 300 299 298 297 297 297 298 298 299 299 299 298 299
282 284 285 287 290 291 291 291 293 294 295 296 298 300 302 302 300 299 300 302 303 303 303 303 303 302 302 302 302 301 300 300 299 298 297 297 296 297 297 298 299 299 298
280 282 283 285 287 288 287 289 291 292 293 294 296 298 299 300 299 298 297 297 298 300 301 302 301 301 301 302 301 301 300 300 300 298 297 297 296 296 296 297 298 299 299
278 280 283 284 285 285 286 288 289 290 291 294 295 296 298 297 297 298 297 295 295 297 298 299 300 300 301 302 301 300 300 300 300 299 298 297 296 296 296 298 298 299 299
277 279 281 282 283 284 285 286 288 290 291 292 294 295 296 296 297 297 297 297 296 296 297 298 299 299 300 301 302 302 301 301 300 299 299 298 297 297 298 299 300 300 299
276 278 280 281 282 283 285 286 286 288 289 291 293 293 294 295 295 295 294 295 296 295 295 297 298 300 300 300 301 302 302 301 302 301 300 298 298 298 299 300 301 301 299
276 277 278 280 281 281 283 284 285 286 287 289 290 291 291 292 293 292 292 293 295 295 295 296 298 299 300 300 301 303 302 303 303 303 302 300 299 299 299 300 300 301 301
275 276 277 279 279 280 281 283 284 285 286 287 289 290 290 290 290 290 291 293 295 295 294 295 296 297 298 298 300 301 300 301 302 302 301 300 301 300 299 299 300 301 301
274 275 276 278 278 279 282 283 284 285 285 286 287 288 288 289 289 289 290 293 293 294 294 295 296 295 297 297 299 300 300 300 302 303 303 302 301 300 300 300 301 302 302
275 277 278 278 278 279 281 282 284 285 286 286 286 287 287 288 289 290 290 291 292 293 294 295 295 294 295 295 296 297 298 300 302 303 303 302 302 302 302 302 301 302 303
276 278 279 279 278 278 280 281 282 284 285 286 287 287 287 288 289 291 292 291 292 293 294 295 296 295 294 295 295 296 298 299 302 302 302 301 302 303 303 303 303 303 303